Location: Asarope
(8.2500°N, 4.4833°E)
Time: 13:06:07
(UTC+00:00)

NOSS 3-1 (C) - Pass Details

Date: 07 June 2020
Orbit: 752 x 1456 km, 63.4° (Epoch: 15 June)

Event Time Altitude Azimuth Distance (km) Brightness Sun altitude
Rises 03:07:59 0° 332° (NNW) 4,359 6.9 -30.6°
Reaches altitude 10° 03:10:47 10° 330° (NNW) 3,450 6.4 -30.0°
Maximum altitude 03:19:25 72° 248° (WSW) 1,511 4.2 -28.2°
Drops below altitude 10° 03:28:19 10° 165° (SSE) 3,540 6.2 -26.3°
Sets 03:31:14 0° 163° (SSE) 4,477 6.8 -25.7°
